Orbital Elements at Epoch 2459200.5 (2020-Dec-17.0) TDB
Reference: JPL 18 (heliocentric ecliptic J2000)
Element | Value | Uncertainty (1-sigma) | Units |
e | .1923645413555467 | 9.1005e-08 | |
a | 2.599107242559387 | 1.4522e-08 | au |
q | 2.099131169910571 | 2.2944e-07 | au |
i | 10.49830974488966 | 8.8315e-06 | deg |
node | 339.3364132874742 | 2.4928e-05 | deg |
peri | 243.7556480072858 | 3.5356e-05 | deg |
M | 125.4957505316802 | 2.1142e-05 | deg |
tp | 2458666.967050413648 (2019-Jul-02.46705041) | 9.1962e-05 | TDB |
period | 1530.50490584221 4.19 | 1.2827e-05 3.512e-08 | d yr |
n | .2352164953054485 | 1.9713e-09 | deg/d |
Q | 3.099083315208203 | 1.7316e-08 | au |
|
| | Orbit Determination Parameters
Additional Information
|